Regional Weather Roundup
Issued by NWS

Home | Current Version | Previous Version | Graphics & Text | Print | Product List | Glossary On
Versions: 1 2 3 4 5 6 7 8 9 10 11 12 13 14 15 16 17 18 19 20 21 22 23 24 25 26 27 28 29 30 31 32 33 34 35 36 37 38 39 40 41 42 43 44 45 46 47 48 49 50
000
ASUS43 KMKX 202000
RWRWI

WISCONSIN REGIONAL WEATHER ROUNDUP
NATIONAL WEATHER SERVICE MILWAUKEE/SULLIVAN WI
200 PM CST SAT DEC 20 2014

NOTE: "FAIR" INDICATES FEW OR NO CLOUDS BELOW 12,000 FEET WITH NO
SIGNIFICANT WEATHER AND/OR OBSTRUCTIONS TO VISIBILITY.

WIZ001-002-006>008-014>016-023>028-202100-
NORTHWEST WISCONSIN

CITY           SKY/WX    TMP DP  RH WIND       PRES   REMARKS
SUPERIOR ARPT  CLOUDY    32  28  84 S7        30.11F WCI  26
ASHLAND        CLOUDY    32  27  81 S6        30.14F WCI  26
HAYWARD        CLOUDY    30  24  78 S7        30.12F HAZE    WCI  23
SIREN          CLOUDY    32  27  83 S7        30.12S WCI  25
CUMBERLAND     CLOUDY    30  27  86 S9        30.12S FOG     WCI  22
RICE LAKE      CLOUDY    31  26  81 SE7       30.15S WCI  24
CHETEK         CLOUDY    31  26  84 E8        30.14F WCI  23
LADYSMITH      CLOUDY    31  26  84 S6        30.16F WCI  25
EAU CLAIRE     NOT AVBL
MENOMONIE      CLOUDY    32  27  82 SE8       30.16S HAZE    WCI  25
NEW RICHMOND   CLOUDY    31  29  93 S8        30.13F FOG     WCI  24
OSCEOLA        CLOUDY    32  29  88 S8        30.15F WCI  25
$$

WIZ003>005-009-010-017-018-202100-
NORTH CENTRAL WISCONSIN

CITY           SKY/WX    TMP DP  RH WIND       PRES   REMARKS
MANITOWISH WTR CLOUDY    27  26  96 SE7       30.12F FOG     WCI  19
ARBOR VITAE    CLOUDY    29  26  89 S7        30.13S FOG     WCI  22
WOODRUFF       CLOUDY    29  26  89 S7        30.13S FOG     WCI  22
RHINELANDER    CLOUDY    26  24  92 S5        30.14F FOG     WCI  20
EAGLE RIVER    LGT SNOW  27  26  97 S3        30.13F
LAND O LAKES   CLOUDY    27  26  94 S3        30.14S FOG
PHILLIPS       CLOUDY    28  25  87 SE7       30.13F WCI  21
TOMAHAWK       CLOUDY    27  24  87 CALM      30.16S FOG
MEDFORD        CLOUDY    28  25  89 S7        30.15S FOG     WCI  20
MERRILL        CLOUDY    28  26  93 CALM      30.17S FOG
$$

WIZ029-030-035-036-043>047-202100-
CENTRAL WISCONSIN

CITY           SKY/WX    TMP DP  RH WIND       PRES   REMARKS
WAUSAU         CLOUDY    29  24  82 S7        30.16S WCI  22
MOSINEE        CLOUDY    28  27  93 SE3       30.18S
MARSHFIELD     CLOUDY    30  25  81 SE7       30.17S HAZE    WCI  23
STEVENS POINT  CLOUDY    28  23  81 SE5       30.19S WCI  23
WAUPACA        CLOUDY    32  24  74 CALM      30.22S
WAUTOMA        NOT AVBL
WISC RAPIDS    CLOUDY    31  24  75 S5        30.20F WCI  26
CAMP DOUGLAS   NOT AVBL
$$

WIZ011>013-019>022-031-037>040-048>050-202100-
NORTHEAST WISCONSIN

CITY           SKY/WX    TMP DP  RH WIND       PRES   REMARKS
ANTIGO         CLOUDY    26  24  96 S7        30.16F FOG     WCI  18
SHAWANO        CLOUDY    31  26  83 CALM      30.22S
OCONTO         CLOUDY    29  24  82 CALM      30.22F
STURGEON BAY   CLOUDY    28  21  74 SE5       30.23F WCI  23
GREEN BAY      CLOUDY    30  24  78 CALM      30.22F HAZE
MANITOWOC      CLOUDY    34  25  69 CALM      30.23F
APPLETON       CLOUDY    28  21  74 VRB5      30.22F WCI  23
CLINTONVILLE   CLOUDY    30  23  74 S3        30.22S
OSHKOSH        CLOUDY    29  23  78 S6        30.22F HAZE    WCI  23
$$

WIZ032>034-041-042-053>061-202100-
SOUTHWEST WISCONSIN

CITY           SKY/WX    TMP DP  RH WIND       PRES   REMARKS
LA CROSSE      CLOUDY    33  27  78 S6        30.17F HAZE    WCI  28
SPARTA         CLOUDY    31  26  81 S5        30.20S HAZE    WCI  26
VIROQUA        CLOUDY    29  29 100 SE7       30.16F WCI  22
BOSCOBEL       CLOUDY    33  26  75 SE3       30.20F HAZE
PRAIRIE DU CHI CLOUDY    32  27  82 E6        30.19F HAZE    WCI  26
PLATTEVILLE    CLOUDY    31  27  83 CALM      30.20S
$$

WIZ056-057-062-063-064-067-068-202100-
SOUTH CENTRAL WISCONSIN

CITY           SKY/WX    TMP DP  RH WIND       PRES   REMARKS
REEDSBURG      DRIZZLE   29  26  85 S3        30.20S
BARABOO/DELLS  CLOUDY    29  25  84 S5        30.20F WCI  24
LONE ROCK      NOT AVBL
MINERAL POINT  CLOUDY    32  28  86 S5        30.19S FOG     WCI  27
MADISON        LGT SNOW  30  25  81 S7        30.21S WCI  23
MIDDLETON      CLOUDY    32  27  82 S6        30.22S WCI  26
WATERTOWN      MIX PCPN  29  26  87 S3        30.21F
MONROE         CLOUDY    30  28  93 S7        30.20F FOG     WCI  23
JANESVILLE     CLOUDY    32  27  80 S5        30.22F WCI  27
$$

WIZ051-052-058>065-066-070>072-202100-
SOUTHEAST WISCONSIN

CITY           SKY/WX    TMP DP  RH WIND       PRES   REMARKS
MILWAUKEE      FLURRIES  31  21  66 W5        30.23F WCI  26
WAUKESHA       LGT SNOW  28  21  74 SW5       30.23F WCI  23
MILWAUKEE/TIMM FLURRIES  30  21  69 SW5       30.24F WCI  25
RACINE         CLOUDY    31  23  72 W6        30.25F WCI  25
BURLINGTON     CLOUDY    30  24  78 S3        30.23S
KENOSHA        CLOUDY    31  24  75 SW3       30.23F
FOND DU LAC    LGT SNOW  30  23  75 S3        30.22F
SHEBOYGAN      CLOUDY    32  23  69 CALM      30.22F
WEST BEND      FLURRIES  30  21  69 CALM      30.22S
JUNEAU         CLOUDY    29  24  84 SE3       30.22F
$$

LSZ147-162-202100-
LAKE SUPERIOR

STATION/POSITION TIME  TEMP    WIND        PRES    WAVE
                       AIR SEA DIR/SP/G            HT/PER
                 (UTC) (F)     (DEG/KT/KT) (MB)    (FT/S)
DEVILS ISLAND    1900   31     200/  8/ 11 1021.4F
PORT WING        1900   32     160/  9/ 12 1020.3F
SAXON HARBOR     1900   35     210/  4/  6 1020.7F
$$

LMZ867-665-643>646-202100-
LAKE MICHIGAN

STATION/POSITION TIME  TEMP    WIND        PRES    WAVE
                       AIR SEA DIR/SP/G            HT/PER
                 (UTC) (F)     (DEG/KT/KT) (MB)    (FT/S)
CHAMBERS ISLAND  1900   28     180/  2/  4 1024.0F
NORTHPORT PIER   1900   29     320/  4/  6 1023.7
SISTER BAY       1858             CALM       N/A
ALGOMA LAKESHORE 1914             CALM       N/A
KEWAUNEE LAKESHO 1900   31     280/  2/  4 1023.0F
SHEBOYGAN LAKESH 1900   31 33   10/  6/  7 1024.7F
PORT WASHINGTON  1900   32     320/  1/  3 1024.4
MILWAUKEE LAKESH 1900   31     230/  3/  4   N/A
KENOSHA   LAKESH 1900   31     250/  5/  7 1024.4S
$$

TC  - TEMPERATURE IN CELSIUS
VSB - VISIBILITY IN STATUTE MILES
WCI - WIND CHILL INDEX
HX  - HEAT INDEX




USA.gov is the U.S. government's official web portal to all federal, state and local government web resources and services.